SL-8 R/B, 22676

Orbit data source: Space-Track

SL-8 R/B, 22676 is space debris in LEO originally from a launch on Wed, 16 Jun 1993 UTC launched from the Plesetsk Missile And Space Complex (PKMTR). Debris objects in space refer to the collection of defunct objects orbiting the Earth. Examples of debris include non-operational satellites, rocket bodies, and fragments generated from explosions, collisions, or faulty payload assembly.

Loading next visibility...
Identifier
22676, 1993-036B
Orbit
LEO
Country
Flag of CISCIS
Related business
Manufacturer
Polyot
Mission
Spacecraft
Bus & Motor
S3, Unknown motor
Mass
1,434 kg wet, 1,434 kg dry
Launch date (UTC)
1993-06-16 (33 years ago)
Launch vehicle
Unknown
Launch site
Plesetsk Missile And Space Complex (PKMTR)
Object type
Payload
Rocket body
Debris
Shape & HBR
Cyl, 3.3 m
Radar Cross Section
14.646 m², Large (>1 m²)

Expand to show TLE details & history
Last TLE update: 11 hours ago

TLE from 11 hours ago
0 SL-8 R/B
1 22676U 93036B   26048.68527814  .00000204  00000-0  80314-4 0  9991
2 22676  74.0425 145.6118 0017228 119.0330 241.2551 14.35253918709153
Epoch: 2026-02-17T16:26Z
TLE epoch observation values (Epoch: 2026-02-17T16:26:48.031Z)
Latitude
-0.00003°
Longitude
111.24993°
Altitude
782.776 km
Speed
7.46 km/s
True Right ascension
09h 42m 26s
True Declination
0° 00' 00"
Sunlit
Object was in full shadow at epoch
Visualization orbit readout
Latitude
Unknown
Longitude
Unknown
Altitude
Unknown
Speed
Unknown
Apparent Right ascension
Unknown
Apparent Declination
Unknown
Sunlit
N/A
Visualization observer readout
Local Sidereal Time
06:24:26
Azimuth
Unknown
Elevation
Unknown
Doppler factor
Unknown
Orbital elements
Apogee altitude
784.165 km
Perigee altitude
759.529 km
Semi-major axis
7,149.984 km
Eccentricity
0.00172
Inclination
74.0425°
RAAN
145.6118°
Arg. of periapsis
119.033°
True anomaly
241.08219°
Mean anomaly
241.2551°
Eccentric anomaly
241.16863°
Mean motion
3.58993 °/min
Orbital period
100.28 mins
BSTAR
0.000080314
Loading maneuver chart data...
Computing Atmospheric mass density...

Documentation

Showing up to 5 results
|